{"data":{"norad_id":53420,"epoch":"2026-09-19T20:38:39.895008Z","epoch_age_seconds":130693,"freshness":"FRESH","line1":"1 53420U 22097AJ  26262.86018397 -.00001375  00000+0 -29572-4 0  9990","line2":"2 53420  53.1592 308.8783 0001487 120.6810 239.4339 15.34381297228127","mean_motion":15.34381297,"eccentricity":0.0001487,"inclination_deg":53.1592,"raan_deg":308.8783,"arg_perigee_deg":120.681,"mean_anomaly_deg":239.4339,"bstar":-2.9572e-5,"rev_number":22812,"period_min":93.848902017736,"perigee_km":461.74158881932,"apogee_km":463.77607123917,"semimajor_km":6840.8958300292,"source":"CELESTRAK","updated_at":"2026-09-20T09:00:40.229698Z"}}